Troy, MI

1:00 AM EDT on April 28, 2017 (GMT -0400)
Troy

Weather History for KVLL - December, 2012

Change the Weather History Date:

Friday, December 28, 2012

  Actual Average (KDET) Record (KDET)
Temperature  
Mean Temperature 25 °F -  
Max Temperature 31 °F 34 °F 63 °F (1984)
Min Temperature 19 °F 22 °F 3 °F (2000)
Degree Days  
Heating Degree Days 40    
Moisture  
Dew Point 21 °F    
Average Humidity 84    
Maximum Humidity 91    
Minimum Humidity 71    
Precipitation  
Precipitation 0.00 in - - ()
Sea Level Pressure  
Sea Level Pressure 30.10 in    
Wind  
Wind Speed 1 mph (NNE)    
Max Wind Speed 6 mph    
Max Gust Speed -    
Visibility 9 miles    
Events Snow    
Averages and records for this station are not official NWS values.
T = Trace of Precipitation, MM = Missing Value Source: NWS Daily Summary

Daily Weather History Graph

Daily Weather History Graph

Search for Another Location

Airport or City:

Trip Planner

Search our weather history database for the weather conditions in past years. The results will help you decide how hot, cold, wet, or windy it might be!

Date:

Astronomy

Dec. 28, 2012 Rise Set
Actual Time 8:01 AM EST 5:07 PM EST
Civil Twilight 7:29 AM EST 5:39 PM EST
Nautical Twilight 6:54 AM EST 6:14 PM EST
Astronomical Twilight 6:20 AM EST 6:49 PM EST
Moon 5:44 PM EST 7:54 AM EST
Length of Visible Light 10h 09m
Length of Day
9h 05m
Full, 100% of the Moon is Illuminated
Dec 28
Full
Jan 4
Last Quarter
Jan 11
New
Jan 18
First Quarter
Jan 26
Full

Hourly Weather History & Observations

Time (EST) Temp. Windchill Dew Point Humidity Pressure Visibility Wind Dir Wind Speed Gust Speed Precip Events Conditions
12:34 AM 22.5 °F - 19.0 °F 87% 30.15 in 10.0 mi Calm Calm - N/A   Clear
12:55 AM 22.3 °F - 18.3 °F 85% 30.14 in 10.0 mi Calm Calm - N/A   Clear
1:15 AM 20.8 °F - 17.6 °F 87% 30.14 in 10.0 mi Calm Calm - N/A   Clear
1:34 AM 21.4 °F - 18.5 °F 89% 30.14 in 10.0 mi Calm Calm - N/A   Clear
1:55 AM 20.1 °F - 17.4 °F 89% 30.14 in 10.0 mi Calm Calm - N/A   Clear
2:15 AM 21.4 °F 16.6 °F 18.5 °F 89% 30.14 in 10.0 mi WNW 3.5 mph - N/A   Clear
2:34 AM 20.3 °F - 17.1 °F 87% 30.15 in 10.0 mi Calm Calm - N/A   Clear
2:55 AM 20.3 °F - 17.4 °F 89% 30.15 in 10.0 mi Calm Calm - N/A   Clear
3:15 AM 21.2 °F 16.4 °F 17.2 °F 85% 30.15 in 10.0 mi WNW 3.5 mph - N/A   Clear
3:34 AM 21.0 °F - 16.7 °F 83% 30.17 in 10.0 mi Calm Calm - N/A   Clear
3:55 AM 20.7 °F - 16.5 °F 84% 30.16 in 10.0 mi Calm Calm - N/A   Clear
4:15 AM 19.9 °F - 16.5 °F 87% 30.16 in 10.0 mi Calm Calm - N/A   Clear
4:34 AM 19.8 °F - 16.5 °F 87% 30.16 in 10.0 mi Calm Calm - N/A   Clear
4:55 AM 19.4 °F - 16.3 °F 88% 30.15 in 10.0 mi Calm Calm - N/A   Clear
5:14 AM 19.0 °F - 16.0 °F 88% 30.15 in 10.0 mi Calm Calm - N/A   Clear
5:34 AM 20.5 °F 15.6 °F 17.1 °F 87% 30.15 in 10.0 mi WNW 3.5 mph - N/A   Clear
5:55 AM 20.8 °F - 16.5 °F 83% 30.15 in 10.0 mi Calm Calm - N/A   Clear
6:14 AM 21.2 °F - 16.9 °F 83% 30.16 in 10.0 mi Calm Calm - N/A   Clear
6:35 AM 19.8 °F - 15.6 °F 84% 30.15 in 10.0 mi Calm Calm - N/A   Clear
6:54 AM 19.0 °F - 15.8 °F 87% 30.15 in 10.0 mi Calm Calm - N/A   Clear
7:14 AM 19.4 °F - 16.5 °F 89% 30.15 in 10.0 mi Calm Calm - N/A   Clear
7:35 AM 19.2 °F - 15.8 °F 87% 30.14 in 10.0 mi Calm Calm - N/A   Clear
7:54 AM 19.2 °F - 15.8 °F 87% 30.14 in 10.0 mi Calm Calm - N/A   Clear
8:15 AM 19.9 °F - 16.7 °F 87% 30.15 in 10.0 mi Calm Calm - N/A   Mostly Cloudy
8:54 AM 21.6 °F - 17.4 °F 84% 30.15 in 10.0 mi Calm Calm - N/A   Overcast
9:15 AM 22.8 °F - 18.3 °F 83% 30.15 in 10.0 mi Calm Calm - N/A   Mostly Cloudy
9:35 AM 23.2 °F - 18.3 °F 82% 30.15 in 10.0 mi Calm Calm - N/A   Scattered Clouds
9:54 AM 24.4 °F - 18.7 °F 79% 30.17 in 10.0 mi Calm Calm - N/A   Clear
10:15 AM 25.2 °F - 19.6 °F 79% 30.17 in 10.0 mi Calm Calm - N/A   Scattered Clouds
10:34 AM 25.9 °F - 19.6 °F 77% 30.18 in 10.0 mi Calm Calm - N/A   Mostly Cloudy
10:55 AM 27.1 °F - 20.3 °F 75% 30.19 in 10.0 mi Calm Calm - N/A   Overcast
11:14 AM 27.5 °F - 20.7 °F 75% 30.18 in 10.0 mi Calm Calm - N/A   Overcast
11:34 AM 27.5 °F - 20.1 °F 74% 30.18 in 10.0 mi Calm Calm - N/A   Overcast
11:55 AM 28.2 °F - 19.9 °F 71% 30.17 in 10.0 mi Calm Calm - N/A   Overcast
12:14 PM 28.6 °F - 20.3 °F 71% 30.17 in 3.0 mi Calm Calm - N/A Snow Light Snow
12:34 PM 28.4 °F 24.6 °F 22.5 °F 78% 30.15 in 2.0 mi WSW 3.5 mph - N/A Snow Light Snow
12:55 PM 28.8 °F - 23.9 °F 82% 30.14 in 1.5 mi Calm Calm - N/A Snow Light Snow
1:14 PM 28.9 °F - 23.9 °F 81% 30.12 in 2.0 mi Calm Calm - N/A Snow Light Snow
1:35 PM 29.1 °F - 24.3 °F 82% 30.11 in 2.5 mi Calm Calm - N/A Snow Light Snow
1:54 PM 29.3 °F - 24.8 °F 83% 30.10 in 4.0 mi Calm Calm - N/A Snow Light Snow
2:14 PM 30.4 °F - 25.0 °F 80% 30.08 in 10.0 mi Calm Calm - N/A   Overcast
2:35 PM 31.1 °F - 25.7 °F 80% 30.07 in 7.0 mi Calm Calm - N/A   Overcast
2:54 PM 30.9 °F - 25.3 °F 80% 30.07 in 10.0 mi Calm Calm - N/A   Mostly Cloudy
3:15 PM 30.9 °F - 25.3 °F 80% 30.06 in 10.0 mi Calm Calm - N/A   Mostly Cloudy
3:35 PM 31.1 °F - 25.7 °F 80% 30.07 in 10.0 mi Calm Calm - N/A   Overcast
3:54 PM 31.1 °F - 25.7 °F 80% 30.07 in 10.0 mi Calm Calm - N/A   Overcast
4:15 PM 31.1 °F 27.7 °F 25.5 °F 80% 30.07 in 10.0 mi SE 3.5 mph - N/A   Overcast
4:35 PM 31.1 °F - 25.7 °F 80% 30.07 in 3.0 mi Calm Calm - N/A Snow Light Snow
4:54 PM 31.1 °F - 26.2 °F 82% 30.06 in 1.8 mi Calm Calm - N/A Snow Light Snow
5:34 PM 30.7 °F - 26.6 °F 85% 30.06 in 5.0 mi Calm Calm - N/A Snow Light Snow
5:54 PM 30.9 °F - 27.1 °F 86% 30.06 in 4.0 mi Calm Calm - N/A Snow Light Snow
6:14 PM 30.7 °F - 27.1 °F 86% 30.05 in 7.0 mi Calm Calm - N/A Snow Light Snow
6:34 PM 30.6 °F - 26.6 °F 85% 30.04 in 10.0 mi Calm Calm - N/A   Overcast
6:55 PM 30.2 °F - 25.7 °F 83% 30.04 in 10.0 mi Calm Calm - N/A   Overcast
7:14 PM 30.2 °F 26.7 °F 25.7 °F 83% 30.04 in 10.0 mi ESE 3.5 mph - N/A   Overcast
7:34 PM 29.8 °F - 24.8 °F 81% 30.04 in 10.0 mi Calm Calm - N/A   Overcast
7:54 PM 29.3 °F - 24.8 °F 83% 30.03 in 10.0 mi Calm Calm - N/A   Overcast
8:14 PM 28.8 °F - 24.1 °F 83% 30.03 in 10.0 mi Calm Calm - N/A   Scattered Clouds
8:35 PM 28.6 °F 24.8 °F 24.4 °F 84% 30.04 in 10.0 mi NNE 3.5 mph - N/A   Mostly Cloudy
8:54 PM 28.2 °F 24.4 °F 24.6 °F 86% 30.03 in 10.0 mi North 3.5 mph - N/A   Scattered Clouds
9:15 PM 28.2 °F - 24.8 °F 87% 30.02 in 10.0 mi Calm Calm - N/A   Mostly Cloudy
9:35 PM 28.6 °F 24.8 °F 25.7 °F 89% 30.02 in 10.0 mi ENE 3.5 mph - N/A   Overcast
9:54 PM 28.2 °F 24.4 °F 25.3 °F 89% 30.01 in 7.0 mi NE 3.5 mph - N/A   Mostly Cloudy
10:15 PM 28.0 °F 22.8 °F 25.3 °F 90% 30.01 in 10.0 mi NNE 4.6 mph - N/A   Mostly Cloudy
10:34 PM 28.0 °F 21.7 °F 25.5 °F 90% 30.01 in 7.0 mi NE 5.8 mph - N/A   Overcast
10:55 PM 27.9 °F 21.5 °F 25.3 °F 90% 30.00 in 7.0 mi NE 5.8 mph - N/A   Overcast
11:15 PM 27.9 °F 21.5 °F 25.3 °F 90% 29.99 in 7.0 mi NE 5.8 mph - N/A   Overcast
11:34 PM 27.7 °F 21.3 °F 25.3 °F 91% 29.97 in 7.0 mi NE 5.8 mph - N/A   Overcast
11:55 PM 27.9 °F 21.5 °F 25.3 °F 90% 29.97 in 10.0 mi NNE 5.8 mph - N/A   Overcast